NOAA 16 DEB, 42396

Orbit data source: Space-Track

NOAA 16 DEB, 42396 is space debris in SSO originally from a launch on Thu, 21 Sep 2000 UTC launched from the Air Force Western Test Range (AFWTR). Debris objects in space refer to the collection of defunct objects orbiting the Earth. Examples of debris include non-operational satellites, rocket bodies, and fragments generated from explosions, collisions, or faulty payload assembly.

Loading next visibility...
Identifier
42396, 2000-055SQ
Orbit
SSO
Country
Flag of USUS
Related business
Manufacturer
Unknown
Mission
Spacecraft
Bus & Motor
Unknown
Mass
Unknown
Launch date (UTC)
2000-09-21 (25 years ago)
Launch vehicle
Unknown
Launch site
Air Force Western Test Range (AFWTR)
Object type
Payload
Rocket body
Debris
Shape & HBR
Unknown shape, 0.1 m
Radar Cross Section
Small (<0.1 m²)

Expand to show TLE details & history
Last TLE update: 10 hours ago

TLE from 10 hours ago
0 NOAA 16 DEB
1 42396U 00055SQ  25290.64364874  .00017799  00000-0  42642-2 0  9997
2 42396  98.7957  66.4536 0026159  34.0822 326.2046 14.53344814501997
Epoch: 2025-10-17T15:26Z
TLE epoch observation values (Epoch: 2025-10-17T15:26:51.251Z)
Latitude
-0°
Longitude
168.35399°
Altitude
702.295 km
Speed
7.513 km/s
True Right ascension
04h 25m 48s
True Declination
0° 00' 00"
Sunlit
Object was in full shadow at epoch
Visualization orbit readout
Latitude
Unknown
Longitude
Unknown
Altitude
Unknown
Speed
Unknown
Apparent Right ascension
Unknown
Apparent Declination
Unknown
Sunlit
N/A
Visualization observer readout
Local Sidereal Time
20:35:08
Azimuth
Unknown
Elevation
Unknown
Doppler factor
Unknown
Orbital elements
Apogee altitude
730.41 km
Perigee altitude
693.317 km
Semi-major axis
7,090 km
Eccentricity
0.00262
Inclination
98.7957°
RAAN
66.4536°
Arg. of periapsis
34.0822°
True anomaly
326.03741°
Mean anomaly
326.2046°
Eccentric anomaly
326.12105°
Mean motion
3.63558 °/min
Orbital period
99.02 mins
BSTAR
0.0042642
Loading maneuver chart data...
Computing Atmospheric mass density...

Documentation

Showing up to 5 results
|